Hatteras, NC

10:35 PM EDT on August 20, 2017 (GMT -0400)
Mitchell

Weather History for KHSE - May, 2014

Change the Weather History Date:

Saturday, May 10, 2014

  Actual Average Record
Temperature  
Mean Temperature 75 °F 66 °F  
Max Temperature 79 °F 72 °F 86 °F (1964)
Min Temperature 71 °F 59 °F 41 °F (1983)
Degree Days  
Heating Degree Days 0 2  
Month to date heating degree days 1 26  
Since 1 July heating degree days 2526 2560  
Cooling Degree Days 10 3  
Month to date cooling degree days 53 21  
Year to date cooling degree days 80 49  
Growing Degree Days 24 (Base 50)    
Moisture  
Dew Point 69 °F    
Average Humidity 82    
Maximum Humidity 93    
Minimum Humidity 71    
Precipitation  
Precipitation 0.00 in 0.12 in 0.68 in (1904)
Month to date precipitation 0.81 1.19  
Year to date precipitation 22.18 18.86  
Snow  
Snow 0.00 in - - ()
Month to date snowfall 0.0  
Since 1 July snowfall 5.7  
Snow Depth 0.00 in    
Sea Level Pressure  
Sea Level Pressure 30.12 in    
Wind  
Wind Speed 13 mph (SW)    
Max Wind Speed 20 mph    
Max Gust Speed 27 mph    
Visibility 8 miles    
Events      
T = Trace of Precipitation, MM = Missing Value Source: NWS Daily Summary

Daily Weather History Graph

Daily Weather History Graph

Search for Another Location

Airport or City:

Trip Planner

Search our weather history database for the weather conditions in past years. The results will help you decide how hot, cold, wet, or windy it might be!

Date:

Astronomy

May. 10, 2014 Rise Set
Actual Time 6:02 AM EDT 7:55 PM EDT
Civil Twilight 5:34 AM EDT 8:23 PM EDT
Nautical Twilight 5:01 AM EDT 8:57 PM EDT
Astronomical Twilight 4:25 AM EDT 9:33 PM EDT
Moon 3:58 PM EDT (5/10) 3:24 AM EDT (5/10)
Length of Visible Light 14h 48m
Length of Day
13h 53m
Waxing Gibbous, 82% of the Moon is Illuminated
May 10
Waxing Gibbous
May 14
Full
May 21
Last Quarter
May 28
New
Jun 5
First Quarter

Hourly Weather History & Observations

Time (EDT) Temp. Dew Point Humidity Pressure Visibility Wind Dir Wind Speed Gust Speed Precip Events Conditions
12:08 AM 72.0 °F 69.1 °F 91% 30.13 in 7.0 mi WSW 13.8 mph - N/A   Partly Cloudy
12:22 AM 72.0 °F 69.1 °F 91% 30.13 in 7.0 mi WSW 15.0 mph 21.9 mph N/A   Mostly Cloudy
12:51 AM 72.0 °F 69.1 °F 91% 30.13 in 7.0 mi WSW 13.8 mph - N/A   Overcast
1:51 AM 73.0 °F 69.1 °F 87% 30.10 in 7.0 mi WSW 16.1 mph 24.2 mph N/A   Overcast
2:51 AM 72.0 °F 69.1 °F 91% 30.10 in 6.0 mi WSW 16.1 mph 24.2 mph N/A   Overcast
3:22 AM 72.0 °F 69.1 °F 91% 30.10 in 5.0 mi WSW 13.8 mph 23.0 mph N/A   Scattered Clouds
3:51 AM 71.1 °F 69.1 °F 93% 30.11 in 6.0 mi West 12.7 mph - N/A   Clear
3:59 AM 71.1 °F 69.1 °F 93% 30.10 in 6.0 mi WSW 11.5 mph - N/A   Partly Cloudy
4:19 AM 71.1 °F 69.1 °F 93% 30.10 in 5.0 mi WSW 11.5 mph - N/A   Mostly Cloudy
4:32 AM 71.1 °F 69.1 °F 93% 30.10 in 5.0 mi WSW 12.7 mph - N/A   Scattered Clouds
4:51 AM 72.0 °F 69.1 °F 91% 30.10 in 5.0 mi WSW 12.7 mph - N/A   Clear
5:51 AM 73.0 °F 68.0 °F 84% 30.11 in 6.0 mi WSW 12.7 mph - N/A   Haze
6:51 AM 73.0 °F 68.0 °F 84% 30.13 in 4.0 mi WSW 9.2 mph - N/A   Haze
7:51 AM 73.0 °F 69.1 °F 87% 30.15 in 5.0 mi SW 10.4 mph - N/A   Clear
8:51 AM 73.9 °F 69.1 °F 85% 30.17 in 6.0 mi WSW 11.5 mph - N/A   Haze
9:51 AM 73.9 °F 69.1 °F 85% 30.17 in 7.0 mi WSW 10.4 mph - N/A   Clear
11:51 AM 77.0 °F 69.1 °F 76% 30.17 in 10.0 mi SW 10.4 mph - N/A   Clear
12:51 PM 78.1 °F 68.0 °F 71% 30.15 in 10.0 mi SW 13.8 mph 21.9 mph N/A   Clear
1:51 PM 75.9 °F 68.0 °F 76% 30.13 in 10.0 mi SW 16.1 mph - N/A   Clear
2:51 PM 78.1 °F 69.1 °F 74% 30.12 in 10.0 mi SW 13.8 mph 23.0 mph N/A   Clear
3:51 PM 78.1 °F 69.1 °F 74% 30.10 in 10.0 mi SW 13.8 mph 21.9 mph N/A   Clear
4:51 PM 75.0 °F 68.0 °F 79% 30.08 in 10.0 mi SW 17.3 mph 23.0 mph N/A   Clear
5:51 PM 75.0 °F 68.0 °F 79% 30.07 in 9.0 mi SW 15.0 mph 26.5 mph N/A   Clear
6:51 PM 73.0 °F 68.0 °F 84% 30.08 in 9.0 mi SW 15.0 mph 26.5 mph N/A   Clear
7:51 PM 73.0 °F 68.0 °F 84% 30.09 in 9.0 mi SW 13.8 mph 25.3 mph N/A   Clear
8:51 PM 72.0 °F 68.0 °F 87% 30.10 in 10.0 mi SW 12.7 mph - N/A   Clear
9:51 PM 72.0 °F 66.9 °F 84% 30.12 in 10.0 mi SW 12.7 mph 20.7 mph N/A   Clear
10:51 PM 72.0 °F 66.9 °F 84% 30.12 in 10.0 mi SW 12.7 mph 23.0 mph N/A   Clear
11:51 PM 72.0 °F 66.9 °F 84% 30.11 in 10.0 mi SW 11.5 mph - N/A   Clear